Terminal Aerodrome Forecast
Issued by NWS

Home | Current Version | Previous Version | Text Only | Print | Product List | Glossary On
Versions: 1 2 3 4 5 6 7 8 9 10 11 12 13 14 15 16 17 18 19 20
375
FTUS46 KMTR 231442 AAA
TAFSTS
TAF AMD
KSTS 231442Z 2315/2412 VRB03KT 1SM -SHRA BR OVC002
     FM231700 VRB03KT 6SM -SHRA SCT015 BKN040
     FM232000 19006KT P6SM VCSH BKN050
     FM240300 VRB03KT P6SM VCSH BKN050=

USA.gov is the U.S. government's official web portal to all federal, state and local government web resources and services.